Total_Precipitation_Accumulation
0.92 0.93 0.92 0.88 0.86 0.84 0.82 0.79 0.84 0.91 0.91 0.94 1.11 1.18 1.24 1.32 1.51 1.77 1.95 1.96 1.89 1.88 1.85 1.93 2.10 2.18 2.40 2.35 2.26 2.15 2.03 1.86 1.73 1.56 1.36 1.21 1.26 1.31 1.42 1.50 1.50 1.40 1.23
1.03 1.05 0.97 0.87 0.81 0.78 0.75 0.68 0.69 0.67 0.66 0.78 0.92 0.97 1.02 1.06 1.24 1.53 1.73 1.78 1.76 1.67 1.64 1.76 1.98 2.14 2.35 2.42 2.37 2.22 2.14 2.01 1.90 1.83 1.65 1.45 1.33 1.37 1.51 1.60 1.56 1.48 1.40
1.07 0.98 0.90 0.81 0.70 0.63 0.56 0.52 0.59 0.61 0.68 0.80 0.88 0.94 0.96 1.02 1.06 1.16 1.32 1.45 1.44 1.39 1.41 1.48 1.52 1.72 2.01 2.17 2.18 2.19 2.23 2.22 2.19 2.04 1.84 1.71 1.56 1.45 1.55 1.61 1.58 1.62 1.48
1.20 1.10 0.99 0.87 0.76 0.67 0.58 0.54 0.54 0.57 0.64 0.74 0.80 0.87 0.94 0.99 0.99 1.00 1.02 1.09 1.11 1.18 1.24 1.27 1.31 1.37 1.59 1.76 1.84 2.02 2.25 2.28 2.31 2.23 2.00 1.84 1.70 1.58 1.65 1.78 1.83 1.80 1.64
1.22 1.19 1.05 0.88 0.75 0.68 0.62 0.54 0.54 0.55 0.56 0.64 0.71 0.73 0.78 0.87 0.96 0.98 0.85 0.81 0.91 1.03 1.04 1.00 1.03 1.11 1.24 1.34 1.40 1.75 2.09 2.28 2.28 2.23 2.08 1.97 1.73 1.61 1.50 1.53 1.73 1.97 1.94
1.10 1.07 0.86 0.69 0.56 0.52 0.53 0.52 0.49 0.48 0.53 0.58 0.56 0.60 0.70 0.74 0.89 0.88 0.72 0.70 0.76 0.85 0.94 0.92 0.82 0.80 0.85 0.93 1.01 1.18 1.46 1.70 1.99 2.17 2.09 1.89 1.67 1.58 1.55 1.59 1.63 1.77 1.94
0.75 0.73 0.64 0.53 0.50 0.52 0.54 0.48 0.48 0.48 0.49 0.51 0.49 0.50 0.55 0.69 0.73 0.60 0.59 0.62 0.70 0.76 0.81 0.87 0.79 0.68 0.75 0.81 0.91 0.98 0.99 1.07 1.36 1.71 1.83 1.76 1.82 1.71 1.68 1.62 1.60 1.69 1.75
0.49 0.51 0.46 0.44 0.45 0.48 0.49 0.47 0.53 0.59 0.56 0.55 0.56 0.55 0.54 0.60 0.59 0.49 0.52 0.55 0.61 0.66 0.75 0.84 0.89 0.81 0.81 0.91 0.92 0.95 0.91 0.86 1.07 1.09 1.26 1.54 1.71 1.80 1.77 1.85 2.02 1.99 1.85
0.20 0.21 0.23 0.22 0.25 0.27 0.28 0.34 0.45 0.51 0.54 0.57 0.61 0.61 0.55 0.52 0.54 0.47 0.48 0.54 0.60 0.64 0.66 0.73 0.81 0.79 0.92 1.01 1.01 1.14 1.11 0.99 1.12 1.19 1.24 1.28 1.39 1.54 1.65 1.72 1.81 1.88 1.86
0.09 0.10 0.12 0.13 0.13 0.14 0.17 0.22 0.28 0.28 0.33 0.43 0.46 0.48 0.52 0.51 0.63 0.52 0.52 0.55 0.63 0.73 0.75 0.72 0.86 0.87 0.94 0.93 0.91 1.14 1.16 1.03 0.96 1.03 1.05 1.03 0.98 1.08 1.29 1.45 1.65 1.75 1.73
0.11 0.13 0.14 0.13 0.13 0.13 0.14 0.17 0.21 0.21 0.25 0.28 0.32 0.38 0.45 0.53 0.66 0.64 0.66 0.66 0.71 0.84 0.82 0.74 0.69 0.81 0.70 0.76 0.81 0.84 1.07 1.07 0.96 1.03 1.06 1.00 0.95 0.96 1.02 1.14 1.39 1.61 1.66
0.11 0.12 0.14 0.14 0.14 0.13 0.14 0.17 0.20 0.21 0.21 0.22 0.23 0.28 0.36 0.43 0.51 0.57 0.58 0.63 0.71 0.79 0.83 0.71 0.69 0.77 0.61 0.59 0.61 0.73 0.90 1.02 0.99 1.04 1.05 1.03 0.95 0.89 0.92 1.00 1.09 1.18 1.25
0.12 0.12 0.14 0.16 0.15 0.13 0.15 0.18 0.20 0.22 0.23 0.23 0.25 0.31 0.38 0.44 0.48 0.47 0.45 0.48 0.55 0.62 0.65 0.69 0.69 0.65 0.59 0.54 0.54 0.62 0.70 0.81 0.99 1.03 0.96 0.94 0.87 0.84 0.87 0.90 0.97 1.03 1.09
0.13 0.14 0.16 0.16 0.16 0.16 0.17 0.18 0.20 0.23 0.25 0.27 0.31 0.35 0.41 0.44 0.47 0.45 0.48 0.51 0.50 0.51 0.51 0.51 0.53 0.56 0.59 0.57 0.56 0.59 0.65 0.77 0.86 0.86 0.81 0.80 0.84 0.87 0.93 0.96 1.00 1.03 1.08
0.13 0.14 0.14 0.15 0.16 0.17 0.17 0.18 0.19 0.20 0.25 0.33 0.38 0.41 0.40 0.40 0.36 0.38 0.48 0.57 0.64 0.69 0.74 0.67 0.66 0.65 0.62 0.58 0.56 0.57 0.62 0.68 0.70 0.67 0.67 0.65 0.66 0.74 0.81 0.86 0.95 0.96 0.98
0.18 0.15 0.14 0.14 0.15 0.15 0.16 0.17 0.19 0.20 0.25 0.28 0.28 0.30 0.30 0.30 0.32 0.33 0.38 0.49 0.58 0.72 0.88 0.87 0.89 0.90 0.83 0.73 0.65 0.58 0.55 0.56 0.60 0.65 0.66 0.65 0.63 0.65 0.73 0.76 0.84 0.89 0.89
0.17 0.17 0.15 0.14 0.14 0.16 0.17 0.18 0.21 0.19 0.17 0.18 0.20 0.22 0.28 0.37 0.42 0.45 0.47 0.51 0.54 0.69 0.88 0.92 0.91 0.89 0.81 0.75 0.71 0.62 0.56 0.54 0.56 0.59 0.59 0.62 0.64 0.65 0.71 0.73 0.74 0.79 0.84
0.13 0.15 0.16 0.18 0.19 0.20 0.23 0.26 0.29 0.32 0.30 0.23 0.19 0.19 0.23 0.32 0.37 0.41 0.50 0.61 0.61 0.69 0.79 0.82 0.80 0.68 0.59 0.56 0.53 0.51 0.47 0.46 0.49 0.49 0.49 0.53 0.59 0.62 0.66 0.72 0.74 0.74 0.78
0.10 0.11 0.15 0.22 0.26 0.25 0.27 0.33 0.35 0.30 0.27 0.26 0.24 0.22 0.23 0.27 0.30 0.33 0.43 0.60 0.61 0.55 0.53 0.51 0.49 0.46 0.43 0.45 0.45 0.44 0.43 0.41 0.41 0.43 0.44 0.48 0.52 0.57 0.62 0.68 0.74 0.78 0.78
0.10 0.14 0.17 0.21 0.25 0.24 0.26 0.29 0.30 0.30 0.29 0.30 0.30 0.30 0.31 0.32 0.35 0.36 0.38 0.43 0.42 0.38 0.35 0.36 0.36 0.36 0.39 0.41 0.43 0.45 0.45 0.44 0.44 0.47 0.50 0.54 0.56 0.59 0.64 0.70 0.76 0.81 0.81
0.11 0.14 0.17 0.20 0.22 0.22 0.25 0.28 0.30 0.31 0.33 0.34 0.34 0.36 0.40 0.42 0.41 0.43 0.46 0.46 0.43 0.42 0.41 0.41 0.39 0.38 0.41 0.44 0.47 0.49 0.50 0.50 0.51 0.53 0.56 0.62 0.66 0.67 0.70 0.77 0.84 0.85 0.86
0.13 0.16 0.18 0.22 0.23 0.23 0.26 0.30 0.34 0.34 0.32 0.34 0.35 0.37 0.43 0.46 0.45 0.43 0.43 0.45 0.46 0.47 0.50 0.52 0.50 0.46 0.45 0.49 0.54 0.56 0.57 0.59 0.59 0.59 0.60 0.63 0.68 0.66 0.68 0.77 0.86 0.90 0.92
0.16 0.19 0.22 0.24 0.25 0.25 0.28 0.32 0.35 0.34 0.33 0.35 0.37 0.38 0.41 0.44 0.44 0.44 0.43 0.43 0.43 0.45 0.48 0.53 0.56 0.54 0.49 0.50 0.56 0.62 0.65 0.65 0.65 0.67 0.71 0.73 0.72 0.70 0.70 0.74 0.79 0.86 0.90
0.19 0.23 0.27 0.30 0.31 0.31 0.32 0.35 0.37 0.35 0.36 0.39 0.39 0.39 0.41 0.43 0.42 0.41 0.42 0.44 0.47 0.49 0.50 0.52 0.54 0.54 0.52 0.53 0.56 0.61 0.67 0.67 0.64 0.66 0.71 0.77 0.79 0.77 0.77 0.81 0.86 0.90 0.96
0.22 0.25 0.27 0.30 0.30 0.31 0.33 0.36 0.38 0.37 0.38 0.41 0.41 0.41 0.42 0.44 0.45 0.45 0.46 0.46 0.49 0.52 0.51 0.52 0.54 0.54 0.55 0.55 0.57 0.61 0.73 0.76 0.72 0.70 0.70 0.75 0.79 0.80 0.85 0.93 1.01 1.05 1.09
0.22 0.24 0.27 0.31 0.33 0.34 0.35 0.37 0.40 0.41 0.42 0.43 0.44 0.47 0.48 0.49 0.49 0.49 0.50 0.51 0.51 0.52 0.51 0.52 0.53 0.54 0.56 0.60 0.63 0.69 0.75 0.71 0.69 0.73 0.73 0.77 0.83 0.84 0.85 0.91 0.93 0.97 1.02